Weather History for KLBF - September, 2013

Change the Weather History Date:

Friday, September 6, 2013

  Actual Average Record
Temperature  
Mean Temperature 81 °F 67 °F  
Max Temperature 103 °F 82 °F 103 °F (2013)
Min Temperature 59 °F 51 °F 27 °F (1956)
Degree Days  
Heating Degree Days 0 2  
Month to date heating degree days 0 12  
Since 1 July heating degree days 13 32  
Cooling Degree Days 16 4  
Month to date cooling degree days 69 27  
Year to date cooling degree days 906 722  
Growing Degree Days 30 (Base 50)    
Moisture  
Dew Point 54 °F    
Average Humidity 53    
Maximum Humidity 87    
Minimum Humidity 18    
Precipitation  
Precipitation 0.00 in 0.05 in 1.45 in (1927)
Month to date precipitation 0.00 0.29  
Year to date precipitation 14.36 16.51  
Snow  
Snow 0.00 in 0.00 in 0.00 in (2002)
Month to date snowfall 0.0 0.0  
Since 1 July snowfall 0.0 0.0  
Since 1 September snowfall 0.0 0.0  
Snow Depth 0.00 in    
Sea Level Pressure  
Sea Level Pressure 29.90 in    
Wind  
Wind Speed 7 mph (South)    
Max Wind Speed 14 mph    
Max Gust Speed 20 mph    
Visibility 10 miles    
Events      
T = Trace of Precipitation, MM = Missing Value Source: NWS Daily Summary

Daily Weather History Graph

Daily Weather History Graph

Search for Another Location

Airport or City:

Trip Planner

Search our weather history database for the weather conditions in past years. The results will help you decide how hot, cold, wet, or windy it might be!

Date:

Astronomy

Sep. 06, 2013 Rise Set
Actual Time 7:14 AM CDT 8:06 PM CDT
Civil Twilight 6:46 AM CDT 8:34 PM CDT
Nautical Twilight 6:13 AM CDT 9:07 PM CDT
Astronomical Twilight 5:38 AM CDT 9:42 PM CDT
Moon 8:29 AM CDT (9/6) 8:30 PM CDT (9/6)
Length of Visible Light 13h 48m
Length of Day
12h 52m
New Moon, 2% of the Moon is Illuminated
Sep 6
New Moon
Sep 12
First Quarter
Sep 19
Full
Sep 26
Last Quarter
Oct 4
New

Hourly Weather History & Observations

Time (CDT) Temp. Heat Index Dew Point Humidity Pressure Visibility Wind Dir Wind Speed Gust Speed Precip Events Conditions
12:53 AM 75.9 °F - 57.0 °F 52% 29.96 in 10.0 mi SE 10.4 mph - N/A   Clear
1:53 AM 75.0 °F - 55.9 °F 51% 29.96 in 10.0 mi SE 8.1 mph - N/A   Clear
2:53 AM 73.9 °F - 55.0 °F 52% 29.96 in 10.0 mi SSE 8.1 mph - N/A   Clear
3:53 AM 72.0 °F - 53.1 °F 51% 29.95 in 10.0 mi SE 6.9 mph - N/A   Clear
4:53 AM 64.9 °F - 54.0 °F 68% 29.95 in 10.0 mi ESE 6.9 mph - N/A   Clear
5:53 AM 61.0 °F - 55.0 °F 81% 29.96 in 10.0 mi East 5.8 mph - N/A   Clear
6:53 AM 59.0 °F - 55.0 °F 87% 29.97 in 10.0 mi East 5.8 mph - N/A   Clear
7:53 AM 60.1 °F - 55.0 °F 83% 29.96 in 9.0 mi East 4.6 mph - N/A   Clear
8:53 AM 66.9 °F - 55.9 °F 68% 29.96 in 10.0 mi ESE 3.5 mph - N/A   Clear
9:53 AM 75.0 °F - 55.0 °F 50% 29.95 in 10.0 mi South 5.8 mph - N/A   Clear
10:53 AM 82.0 °F 81.7 °F 57.0 °F 42% 29.94 in 10.0 mi SSE 3.5 mph - N/A   Clear
11:53 AM 91.0 °F 88.7 °F 54.0 °F 28% 29.91 in 10.0 mi SSW 6.9 mph - N/A   Clear
12:53 PM 96.1 °F 94.5 °F 55.9 °F 26% 29.89 in 10.0 mi South 5.8 mph - N/A   Clear
1:53 PM 99.0 °F 97.7 °F 55.9 °F 24% 29.87 in 10.0 mi South 9.2 mph - N/A   Clear
2:53 PM 102.0 °F - 51.1 °F 18% 29.84 in 10.0 mi WSW 15.0 mph - N/A   Clear
3:53 PM 102.9 °F - 50.0 °F 17% 29.83 in 10.0 mi SSW 10.4 mph - N/A   Clear
4:53 PM 102.9 °F - 50.0 °F 17% 29.81 in 10.0 mi WSW 11.5 mph - N/A   Clear
5:53 PM 100.0 °F 97.9 °F 54.0 °F 21% 29.81 in 10.0 mi SW 5.8 mph - N/A   Clear
6:53 PM 95.0 °F 94.4 °F 59.0 °F 30% 29.81 in 10.0 mi SSW 3.5 mph - N/A   Clear
7:53 PM 91.0 °F 88.9 °F 55.0 °F 29% 29.81 in 10.0 mi South 8.1 mph - N/A   Clear
8:53 PM 88.0 °F - 51.1 °F 28% 29.81 in 10.0 mi South 9.2 mph - N/A   Clear
9:53 PM 87.1 °F - 48.0 °F 26% 29.83 in 10.0 mi South 11.5 mph - N/A   Clear
10:53 PM 82.9 °F - 48.0 °F 29% 29.85 in 10.0 mi WSW 8.1 mph - N/A   Clear
11:53 PM 75.0 °F - 52.0 °F 44% 29.86 in 10.0 mi West 5.8 mph - N/A   Clear